FALCON 9 R/B, 52934

Orbit data source: Space-Track

FALCON 9 R/B, 52934 is space debris in HEO originally from a launch on Wed, 29 Jun 2022 UTC launched from the Air Force Eastern Test Range (AFETR). Debris objects in space refer to the collection of defunct objects orbiting the Earth. Examples of debris include non-operational satellites, rocket bodies, and fragments generated from explosions, collisions, or faulty payload assembly.

Loading next visibility...
Identifier
52934, 2022-071B
Orbit
HEO
Country
Flag of USUS
Related business
Manufacturer
SpaceX
Mission
Spacecraft
Bus & Motor
F9ST2, Unknown motor
Mass
~4,000 kg wet, ~4,000 kg dry
Launch date (UTC)
2022-06-29 (4 years ago)
Launch vehicle
Unknown
Launch site
Air Force Eastern Test Range (AFETR)
Object type
Payload
Rocket body
Debris
Shape & HBR
Cyl, 7.8 m
Radar Cross Section
39.980 m², Large (>1 m²)

Expand to show TLE details & history
Last TLE update: 2 days ago

TLE from 2 days ago
0 FALCON 9 R/B
1 52934U 22071B   26171.35295575  .00000472  00000-0  69891-3 0  9992
2 52934  16.1009 204.9342 7191035 188.4578 144.6535  2.34544227 33651
Epoch: 2026-06-20T08:28Z
TLE epoch observation values (Epoch: 2026-06-20T08:28:15.376Z)
Latitude
-0.00001°
Longitude
169.29969°
Altitude
33,622.865 km
Speed
1.809 km/s
True Right ascension
13h 39m 43s
True Declination
0° 00' 00"
Sunlit
Object was in daylight at epoch
Visualization orbit readout
Latitude
Unknown
Longitude
Unknown
Altitude
Unknown
Speed
Unknown
Apparent Right ascension
Unknown
Apparent Declination
Unknown
Sunlit
N/A
Visualization observer readout
Local Sidereal Time
21:46:23
Azimuth
Unknown
Elevation
Unknown
Doppler factor
Unknown
Orbital elements
Apogee altitude
34,766.102 km
Perigee altitude
344.712 km
Semi-major axis
23,933.544 km
Eccentricity
0.7191
Inclination
16.1009°
RAAN
204.9342°
Arg. of periapsis
188.4578°
True anomaly
171.5351°
Mean anomaly
144.6535°
Eccentric anomaly
159.25051°
Mean motion
0.58618 °/min
Orbital period
614.14 mins
BSTAR
0.00069891
Loading maneuver chart data...
Computing Atmospheric mass density...
Loading historical data...
Loading historical data...
Loading historical data...
Loading historical data...
Loading historical data...
Loading historical data...
Loading historical data...
Other satellites on launch #71 in the year 2022 (2022-06-29 UTC)

Documentation

Showing up to 5 results
|